Regional Weather Roundup
Issued by NWS Sterling, VA

Home | Current Version | Previous Version | Text Only | Print | Product List | Glossary On
Versions: 1 2 3 4 5 6 7 8 9 10 11 12 13 14 15 16 17 18 19 20 21 22 23 24 25 26 27 28 29 30 31 32 33 34 35 36 37 38 39 40 41 42 43 44 45 46 47 48 49 50
000
ASUS41 KLWX 021810
RWRLWX

REGIONAL WEATHER ROUNDUP
NATIONAL WEATHER SERVICE BALTIMORE MD/WASHINGTON DC
200 PM EDT WED SEP 02 2015

Note: "FAIR" indicates few or no clouds below 12,000 feet
with no significant weather and/or obstructions to visibility.
 TC=TEMPERATURE CELSIUS

 * =Non NWS site. Station does not report precipitation (e.g. rain,
    snow, etc.), thunder, or fog.

DCZ001-MDZ009-015-VAZ040>042-051-053>054-021900-
WASHINGTON METRO

CITY           SKY/WX    TMP DP  RH WIND       PRES   REMARKS
WASHINGTON NAT PTSUNNY   92  67  43 N7        29.99F HX  95
DULLES         PTSUNNY   90  66  45 CALM      30.00F HX  92
ANDREWS AFB    PTSUNNY   90  66  44 VRB5      29.99F HX  93
FT BELVOIR     PTSUNNY   91  68  46 VRB2      29.99F HX  94
QUANTICO       PTSUNNY   85  72  65 CALM      30.00F HX  91
COLLEGE PARK*  PTSUNNY   91  64  40 W3        29.98F HX  93
LEESBURG*      MOSUNNY   91  72  52 SW6       30.01F HX  98
MANASSAS*      SUNNY     88  72  58 CALM      30.01F HX  94
GAITHERSBURG*  MOSUNNY   90  68  48 W8        30.04F HX  93

$$

MDZ006>007-011-014-021900-
BALTIMORE METRO

CITY           SKY/WX    TMP DP  RH WIND       PRES   REMARKS
BWI AIRPORT    PTSUNNY   91  64  40 NW6       29.98F HX  92
MD SCIENCE CTR   N/A     90  64  42 MISG      29.97F HX  91
MARTIN STATE   MOSUNNY   88  75  66 SE8       29.99F HX  97
ANNAPOLIS      PTSUNNY   83  75  77 SE7       29.99F HX  90
FORT MEADE*    PTSUNNY   90  66  45 NW3       30.01F HX  92

$$

MDZ012-015-019>023-021900-
MARYLAND EASTERN SHORE

CITY           SKY/WX    TMP DP  RH WIND       PRES   REMARKS
OCEAN CITY     PTSUNNY   85  71  63 SE7       29.99F HX  90
SALISBURY      MOSUNNY   90  68  48 N7        29.98F HX  94
BAY BRIDGE AP*   N/A     84  68  58 CALM      29.99S
CAMBRIDGE*     PTSUNNY   90  66  45 NW3       29.98F HX  92
EASTON*        PTSUNNY   90  68  48 N3        30.03F HX  93

$$

MDZ017>025-021900-
SOUTHERN MARYLAND

CITY           SKY/WX    TMP DP  RH WIND       PRES   REMARKS
PATUXENT RIVER PTSUNNY   90  69  50 NE7       29.99F HX  94
ST INIGOES     CLOUDY    85  75  72 SE5       29.99F HX  93
LEONARDTOWN*   NOT AVBL

$$

MDZ003>005-021900-
NORTH CENTRAL MARYLAND

CITY           SKY/WX    TMP DP  RH WIND       PRES   REMARKS
FREDERICK*     NOT AVBL
HAGERSTOWN APT MOSUNNY   90  63  40 NW7       30.00F HX  91
WESTMINSTER*   MOSUNNY   90  66  45 W8        30.01F HX  92

$$

MDZ501>502-021900-
WESTERN MARYLAND

CITY           SKY/WX    TMP DP  RH WIND       PRES   REMARKS
OAKLAND*       CLOUDY    73  64  73 W7        30.17F
CUMBERLAND*    CLOUDY    77  68  73 N12G28    30.11R

$$

VAZ025>031-021900-
SHENANDOAH VALLEY

CITY           SKY/WX    TMP DP  RH WIND       PRES   REMARKS
WINCHESTER*    CLOUDY    88  68  51 SE9       30.03S HX  91
FRONT ROYAL*   MOCLDY    82  68  61 N17G25    30.02F
LURAY*         MOCLDY    79  63  57 SE5       30.03F
NEW MARKET*    FAIR      77  73  86 CALM      30.02F
STAUNTON*      MOSUNNY   88  65  45 NW5       30.08F HX  90
WAYNESBORO*    FAIR      86  65  49 CALM      30.08F

$$

WVZ021-048>050-054>055-021900-
EASTERN WEST VIRGINIA PANHANDLE

CITY           SKY/WX    TMP DP  RH WIND       PRES   REMARKS
MARTINSBURG    MOSUNNY   89  66  46 VRB7      30.02F HX  91
PETERSBURG*    CLOUDY    85  66  54 NW8       30.05F

$$

VAZ036>039-050-021900-
CENTRAL FOOTHILLS

CITY           SKY/WX    TMP DP  RH WIND       PRES   REMARKS
CHARLOTTESVILL PTSUNNY   88  65  46 NE3       30.02F HX  90
CULPEPER*      MOSUNNY   86  70  58 CALM      30.01F HX  91
ORANGE*        PTSUNNY   90  68  48 CALM      30.02F HX  93
GORDONSVILLE*  FAIR      89  70  53 CALM      30.00F HX  93
WARRENTON*     FAIR      88  71  55 CALM      30.01F HX  93

$$

VAZ055>057-021900-
NORTH AND CENTRAL PIEDMONT

CITY           SKY/WX    TMP DP  RH WIND       PRES   REMARKS
FREDERICKSBRG* CLOUDY    91  70  50 N5        29.98F HX  97
STAFFORD*      CLOUDY    89  68  50 NW3       30.04F HX  92

$$

NCZ024-NYZ072-PAZ021-071-VAZ022-071-021900-
OTHER REGIONAL OBSERVATIONS

CITY           SKY/WX    TMP DP  RH WIND       PRES   REMARKS
NEW YORK CITY  MOSUNNY   90  64  42 W5        29.98F HX  91
PHILADELPHIA   PTSUNNY   90  64  42 SW10G16   29.96F HX  91
PITTSBURGH     MOSUNNY   88  64  44 NW13G21   30.06F
ROANOKE        MOSUNNY   91  60  35 VRB3      30.09F HX  90
RICHMOND       CLOUDY    83  68  60 SE14      29.99F
RALEIGH        PTSUNNY   91  69  48 VRB5      30.04F HX  96

$$

ANZ530>537-021900-
MARINE OBSERVATIONS

STATION/POSITION TIME  TEMP    WIND        PRES
                       AIR SEA DIR/SP/G
                 (UTC) (F)     (DEG/KT/KT) (MB)
THOMAS PT LIGHT  NOT AVBL
BALT KEY BRIDGE  1700   82     140/  5/  5 1015.7F
COVE POINT       1700   81      10/  2/  5 1016.7F
LEWISETTA        1700   82 81  100/  5/  5 1015.7F
SOLOMONS ISLAND  1700      81                N/A
PINEY POINT      1705          180/  2/  2   N/A

$$



USA.gov is the U.S. government's official web portal to all federal, state and local government web resources and services.